This demonstration page uses our WeatherBlox Daily Observations layout. Learn more.

Hourly Observations for March 30, 2017

Temp ( °F °C ) Dew Point ( °F °C ) Humidity (%) Winds ( mph kmh ) Pressure ( in mb ) Visibility ( mi km ) Precip ( " mm )
12:15 am 00:15 Cloudy with Light Drizzle 38 3.5 37 2.5 93 93 N 22 35 29.88 1012 10 16.0934 0 0
12:35 am 00:35 Cloudy with Light Drizzle 38 3.5 36 2.4 93 93 N 22 35 29.88 1012 10 16.0934 0.01 0.254
12:55 am 00:55 Cloudy 38 3.3 36 2.1 92 92 N 23 37 29.88 1012 10 16.0934 0.01 0.254
1:15 am 01:15 Cloudy 38 3.2 36 2 92 92 N 21 33 29.88 1012 10 16.0934 0 0
1:35 am 01:35 Cloudy 38 3.3 35 1.9 91 91 N 18 30 29.88 1012 10 16.0934 0 0
1:55 am 01:55 Cloudy 38 3.1 36 2 93 93 N 17 28 29.88 1012 10 16.0934 0 0
2:15 am 02:15 Cloudy 38 3.2 36 2.2 93 93 N 16 26 29.85 1011 10 16.0934 0 0
2:35 am 02:35 Cloudy 37 3 36 2 93 93 N 20 31 29.85 1011 10 16.0934 0 0
2:55 am 02:55 Cloudy 37 3 35 1.5 90 90 N 15 24 29.85 1011 10 16.0934 0 0
3:15 am 03:15 Cloudy 37 2.9 35 1.7 92 92 N 18 30 29.85 1011 7 11.26538 0 0
3:35 am 03:35 Cloudy with Mist and Fog 37 2.7 35 1.7 93 93 N 17 28 29.85 1011 5 8.0467 0 0
3:55 am 03:55 Cloudy 37 2.6 35 1.5 93 93 N 16 26 29.85 1011 10 16.0934 0 0
4:15 am 04:15 Cloudy with Mist and Fog 37 2.5 35 1.5 93 93 N 15 24 29.85 1011 4 6.43736 0 0
4:35 am 04:35 Cloudy 37 2.5 35 1.6 94 94 N 17 28 29.85 1011 7 11.26538 0 0
4:55 am 04:55 Cloudy 37 2.5 35 1.5 93 93 N 15 24 29.85 1011 10 16.0934 0 0
5:15 am 05:15 Cloudy 37 2.5 34 1.3 92 92 N 17 28 29.85 1011 10 16.0934 0 0
5:35 am 05:35 Cloudy 37 2.5 34 1.1 91 91 N 20 31 29.85 1011 10 16.0934 0 0
5:55 am 05:55 Cloudy 36 2.3 33 0.6 89 89 N 20 31 29.85 1011 10 16.0934 0 0
6:15 am 06:15 Cloudy 36 2.3 33 0.7 89 89 N 18 30 29.85 1011 10 16.0934 0 0
6:35 am 06:35 Cloudy 36 2.3 34 1 91 91 N 18 30 29.85 1011 10 16.0934 0 0
6:55 am 06:55 Cloudy 36 2.3 33 0.7 89 89 N 17 28 29.85 1011 10 16.0934 0 0
7:15 am 07:15 Cloudy 36 2.3 34 1 91 91 N 16 26 29.85 1011 10 16.0934 0 0
7:35 am 07:35 Cloudy 36 2.3 34 1 91 91 N 18 30 29.85 1011 10 16.0934 0 0
7:55 am 07:55 Cloudy 37 2.5 34 1 90 90 N 10 17 29.85 1011 10 16.0934 0 0
8:15 am 08:15 Cloudy 37 2.5 34 1 90 90 N 16 26 29.85 1011 10 16.0934 0 0
8:35 am 08:35 Cloudy 37 2.5 34 1 90 90 N 20 31 29.85 1011 10 16.0934 0 0
8:55 am 08:55 Cloudy 37 2.6 34 1.1 90 90 N 18 30 29.85 1011 10 16.0934 0 0
9:15 am 09:15 Cloudy 37 3 34 1 87 87 N 16 26 29.85 1011 10 16.0934 0 0
9:35 am 09:35 Cloudy 38 3.2 34 1.2 87 87 N 16 26 29.85 1011 10 16.0934 0 0
9:55 am 09:55 Cloudy 38 3.3 34 1.2 86 86 N 16 26 29.85 1011 10 16.0934 0 0
10:15 am 10:15 Cloudy 38 3.5 34 1.1 84 84 N 16 26 29.85 1011 10 16.0934 0 0
10:35 am 10:35 Cloudy 39 3.7 34 1.1 83 83 N 17 28 29.85 1011 10 16.0934 0 0
10:55 am 10:55 Cloudy 39 3.7 34 1 83 83 N 13 20 29.85 1011 10 16.0934 0 0
11:15 am 11:15 Cloudy 39 4 34 1.2 82 82 N 18 30 29.83 1010 10 16.0934 0 0
11:35 am 11:35 Cloudy 39 4 35 1.6 85 85 N 15 24 29.83 1010 10 16.0934 0 0
11:55 am 11:55 Cloudy 40 4.2 35 1.4 82 82 N 15 24 29.83 1010 10 16.0934 0 0
12:15 pm 12:15 Cloudy 40 4.3 35 1.6 83 83 N 13 20 29.83 1010 10 16.0934 0 0
12:35 pm 12:35 Cloudy 40 4.7 35 1.9 82 82 N 13 20 29.83 1010 10 16.0934 0 0
12:55 pm 12:55 Cloudy 41 5 36 2.2 82 82 N 13 20 29.83 1010 10 16.0934 0 0
1:15 pm 13:15 Cloudy 42 5.6 37 2.6 81 81 N 14 22 29.83 1010 10 16.0934 0 0
1:35 pm 13:35 Cloudy 42 5.8 36 2.4 79 79 NNW 13 20 29.83 1010 10 16.0934 0 0
1:55 pm 13:55 Cloudy 42 5.7 36 2.4 80 80 N 9 15 29.83 1010 10 16.0934 0 0
2:15 pm 14:15 Cloudy 43 6.2 37 2.5 77 77 NNW 12 19 29.83 1010 10 16.0934 0 0
2:35 pm 14:35 Cloudy 44 6.5 37 2.6 76 76 NNW 10 17 29.83 1010 10 16.0934 0 0
2:55 pm 14:55 Cloudy 44 6.5 37 2.6 76 76 N 8 13 29.83 1010 10 16.0934 0 0
3:15 pm 15:15 Cloudy 45 7 37 2.8 75 75 N 9 15 29.83 1010 10 16.0934 0 0
3:35 pm 15:35 Cloudy 45 7 37 2.7 74 74 N 9 15 29.77 1008 10 16.0934 0 0
3:55 pm 15:55 Cloudy 45 7.1 37 2.8 74 74 N 10 17 29.77 1008 10 16.0934 0 0
4:15 pm 16:15 Cloudy 45 7.2 37 2.8 74 74 NNW 10 17 29.8 1009 10 16.0934 0 0
4:35 pm 16:35 Cloudy 45 7.2 37 2.5 72 72 N 9 15 29.8 1009 10 16.0934 0 0
4:55 pm 16:55 Cloudy 45 7.2 37 2.6 73 73 N 8 13 29.77 1008 10 16.0934 0 0
5:15 pm 17:15 Cloudy 45 7.2 36 2.3 71 71 N 9 15 29.77 1008 10 16.0934 0 0
5:35 pm 17:35 Cloudy 45 7.2 37 2.7 73 73 N 8 13 29.77 1008 10 16.0934 0 0
5:55 pm 17:55 Cloudy 45 7.4 37 2.7 72 72 NNE 10 17 29.77 1008 10 16.0934 0 0
6:15 pm 18:15 Cloudy 44 6.9 36 2.1 72 72 N 6 9 29.77 1008 10 16.0934 0 0
6:35 pm 18:35 Cloudy 45 7.1 37 2.6 73 73 NNE 7 11 29.83 1010 10 16.0934 0 0
6:55 pm 18:55 Cloudy 45 7 37 2.7 74 74 N 6 9 29.83 1010 10 16.0934 0 0
7:15 pm 19:15 Cloudy 44 6.8 37 2.5 74 74 NNE 8 13 29.83 1010 10 16.0934 0 0
7:35 pm 19:35 Cloudy 44 6.6 37 2.6 76 76 NNE 8 13 29.83 1010 10 16.0934 0 0
7:55 pm 19:55 Cloudy 44 6.5 36 2.3 75 75 NE 7 11 29.83 1010 10 16.0934 0 0
8:15 pm 20:15 Cloudy 43 6.3 37 3 80 80 NE 8 13 29.83 1010 10 16.0934 0 0
8:35 pm 20:35 Cloudy 43 6.2 37 2.5 77 77 NE 5 7 29.83 1010 10 16.0934 0 0
8:55 pm 20:55 Cloudy 42 5.8 38 3.3 84 84 ENE 12 19 29.83 1010 10 16.0934 0 0
9:15 pm 21:15 Cloudy 42 5.5 38 3.2 85 85 ENE 10 17 29.83 1010 10 16.0934 0 0
9:35 pm 21:35 Cloudy 42 5.4 37 3 85 85 NE 8 13 29.85 1011 10 16.0934 0 0
9:55 pm 21:55 Cloudy 42 5.3 37 3 85 85 ENE 8 13 29.85 1011 10 16.0934 0 0
10:15 pm 22:15 Cloudy 41 5.2 37 2.8 85 85 NE 8 13 29.85 1011 10 16.0934 0 0
10:35 pm 22:35 Cloudy 41 5 37 2.6 85 85 ENE 8 13 29.85 1011 10 16.0934 0 0
10:55 pm 22:55 Cloudy 41 4.9 37 2.5 85 85 NE 6 9 29.88 1012 10 16.0934 0 0
11:15 pm 23:15 Cloudy 40 4.7 37 2.5 86 86 NE 7 11 29.88 1012 10 16.0934 0 0
11:35 pm 23:35 Cloudy 40 4.5 36 2.2 85 85 NE 6 9 29.88 1012 10 16.0934 0 0
11:55 pm 23:55 Cloudy 40 4.3 36 2.3 87 87 NNE 8 13 29.91 1013 10 16.0934 0 0

Powered by AerisWeather